GW2622 Weather Reports


Display with metric or nautical units.
time (UTC)temp
F
wind
direction
speed
MPH
gust
MPH
rain 1hr
in
rain 24hr
in
rain mn
in
humidity
%
barometer
mb
20260508235746 71 211 5.0 9.0 0.00 0.00 0.00 44 1004.5
20260508235242 72 206 6.0 8.0 0.00 0.00 0.00 40 1004.5
20260508234740 73 217 6.0 13.0 0.00 0.00 0.00 38 1004.6
20260508234235 73 217 5.0 11.0 0.00 0.00 0.00 37 1004.6
20260508233735 73 213 7.0 9.0 0.00 0.00 0.00 34 1004.6
20260508233232 74 220 5.0 7.0 0.00 0.00 0.00 36 1004.7
20260508232729 74 255 4.0 7.0 0.00 0.00 0.00 34 1004.7
20260508232226 74 206 4.0 7.0 0.00 0.00 0.00 35 1004.9
20260508231724 73 261 3.0 7.0 0.00 0.00 0.00 33 1005.0
20260508231220 73 251 2.0 5.0 0.00 0.00 0.00 37 1004.8
20260508230717 73 242 4.0 7.0 0.00 0.00 0.00 38 1005.0
20260508230213 74 230 3.0 7.0 0.00 0.00 0.00 36 1004.8
20260508225712 73 235 4.0 9.0 0.00 0.00 0.00 35 1005.0
20260508225207 75 206 6.0 9.0 0.00 0.00 0.00 35 1005.0
20260508224706 75 269 2.0 5.0 0.00 0.00 0.00 37 1005.1
20260508224203 74 175 5.0 7.0 0.00 0.00 0.00 37 1005.2
20260508223700 74 216 3.0 9.0 0.00 0.00 0.00 37 1005.1
20260508223157 73 221 4.0 7.0 0.00 0.00 0.00 37 1005.1
20260508222655 73 214 5.0 7.0 0.00 0.00 0.00 36 1005.2
20260508222152 74 213 5.0 8.0 0.00 0.00 0.00 37 1005.1
20260508221648 72 217 4.0 7.0 0.00 0.00 0.00 36 1005.2
20260508221144 74 232 4.0 6.0 0.00 0.00 0.00 36 1005.3
20260508220641 74 259 2.0 7.0 0.00 0.00 0.00 36 1005.3
20260508220137 73 228 5.0 7.0 0.00 0.00 0.00 34 1005.2
20260508215634 74 206 8.0 9.0 0.00 0.00 0.00 33 1005.3
20260508215131 74 208 6.0 9.0 0.00 0.00 0.00 36 1005.5
20260508214628 73 245 4.0 7.0 0.00 0.00 0.00 35 1005.4
20260508214125 74 220 5.0 6.0 0.00 0.00 0.00 35 1005.5
20260508213622 75 220 6.0 10.0 0.00 0.00 0.00 34 1005.6
20260508213117 75 224 5.0 9.0 0.00 0.00 0.00 35 1005.5
20260508212614 74 222 5.0 7.0 0.00 0.00 0.00 33 1005.7
20260508212111 74 222 5.0 7.0 0.00 0.00 0.00 33 1005.7
20260508211606 75 274 3.0 5.0 0.00 0.00 0.00 32 1005.8
20260508211103 74 321 0.0 6.0 0.00 0.00 0.00 32 1005.7
20260508210559 75 196 2.0 3.0 0.00 0.00 0.00 28 1005.7
20260508210057 73 285 0.0 1.0 0.00 0.00 0.00 29 1005.7
20260508205554 73 280 3.0 3.0 0.00 0.00 0.00 28 1005.9
20260508205050 74 290 7.0 8.0 0.00 0.00 0.00 28 1005.9
20260508204547 74 303 3.0 9.0 0.00 0.00 0.00 28 1006.0
20260508204042 76 313 4.0 9.0 0.00 0.00 0.00 27 1006.1
20260508203539 76 354 2.0 2.0 0.00 0.00 0.00 28 1006.0
20260508203035 75 280 2.0 5.0 0.00 0.00 0.00 29 1006.2
20260508202532 74 249 4.0 9.0 0.00 0.00 0.00 27 1006.2
20260508202029 76 252 4.0 6.0 0.00 0.00 0.00 27 1006.6
20260508201525 76 281 1.0 3.0 0.00 0.00 0.00 31 1006.4
20260508201022 75 257 2.0 8.0 0.00 0.00 0.00 30 1006.6
20260508200519 75 259 1.0 7.0 0.00 0.00 0.00 29 1006.6
20260508200015 73 40 3.0 6.0 0.00 0.00 0.00 29 1006.4
20260508195512 75 14 2.0 5.0 0.00 0.00 0.00 30 1006.6
20260508195008 77 280 2.0 7.0 0.00 0.00 0.00 28 1006.7
20260508194505 75 270 1.0 2.0 0.00 0.00 0.00 30 1006.7
20260508194002 74 269 1.0 3.0 0.00 0.00 0.00 29 1006.9
20260508193459 73 290 2.0 7.0 0.00 0.00 0.00 28 1007.0
20260508192955 73 297 3.0 5.0 0.00 0.00 0.00 30 1007.0
20260508192452 73 333 6.0 14.0 0.00 0.00 0.00 30 1007.1
20260508191949 75 11 3.0 5.0 0.00 0.00 0.00 30 1007.1
20260508191446 73 285 3.0 6.0 0.00 0.00 0.00 29 1007.1
20260508190942 73 256 4.0 6.0 0.00 0.00 0.00 30 1007.2
20260508190440 73 230 4.0 8.0 0.00 0.00 0.00 30 1007.3
20260508185936 73 210 4.0 5.0 0.00 0.00 0.00 30 1007.2
20260508185434 73 29 2.0 2.0 0.00 0.00 0.00 28 1007.4
20260508184931 73 295 4.0 6.0 0.00 0.00 0.00 29 1007.3
20260508184428 73 305 4.0 7.0 0.00 0.00 0.00 29 1007.6
20260508183924 73 345 3.0 3.0 0.00 0.00 0.00 29 1007.7
20260508183421 72 329 2.0 5.0 0.00 0.00 0.00 31 1007.6
20260508182916 72 293 3.0 5.0 0.00 0.00 0.00 29 1007.7
20260508182414 71 8 6.0 9.0 0.00 0.00 0.00 30 1007.7
20260508181909 72 318 3.0 7.0 0.00 0.00 0.00 31 1007.7
20260508181406 73 255 1.0 5.0 0.00 0.00 0.00 30 1007.7
20260508180903 71 238 2.0 2.0 0.00 0.00 0.00 32 1007.7
20260508180400 72 322 3.0 6.0 0.00 0.00 0.00 31 1007.9
20260508175856 71 359 6.0 6.0 0.00 0.00 0.00 30 1007.8
20260508175353 71 4 3.0 8.0 0.00 0.00 0.00 31 1007.9
20260508174851 73 277 1.0 2.0 0.00 0.00 0.00 28 1007.9
20260508174348 72 226 3.0 3.0 0.00 0.00 0.00 35 1007.8
20260508173839 70 259 1.0 3.0 0.00 0.00 0.00 31 1007.9
20260508173337 70 355 3.0 7.0 0.00 0.00 0.00 30 1008.1
20260508172832 70 358 3.0 7.0 0.00 0.00 0.00 33 1008.1
20260508172330 71 282 0.0 3.0 0.00 0.00 0.00 34 1008.1
20260508171826 71 319 0.0 1.0 0.00 0.00 0.00 31 1008.3
20260508171322 71 343 4.0 6.0 0.00 0.00 0.00 33 1008.5
20260508170819 72 285 1.0 3.0 0.00 0.00 0.00 35 1008.4
20260508170317 72 293 0.0 1.0 0.00 0.00 0.00 36 1008.5
20260508165814 71 301 0.0 3.0 0.00 0.00 0.00 34 1008.6
20260508165311 71 303 2.0 5.0 0.00 0.00 0.00 36 1008.4
20260508164807 71 290 0.0 1.0 0.00 0.00 0.00 33 1008.5
20260508164304 71 253 2.0 2.0 0.00 0.00 0.00 34 1008.4
20260508163802 69 252 1.0 3.0 0.00 0.00 0.00 34 1008.6
20260508163259 68 329 0.0 3.0 0.00 0.00 0.00 41 1008.7
20260508162755 68 263 3.0 6.0 0.00 0.00 0.00 39 1008.5
20260508162252 69 239 1.0 3.0 0.00 0.00 0.00 46 1008.7
20260508161749 68 144 3.0 7.0 0.00 0.00 0.00 46 1008.9
20260508161246 68 217 4.0 6.0 0.00 0.00 0.00 47 1008.8
20260508160744 66 138 4.0 6.0 0.00 0.00 0.00 49 1008.8
20260508160242 67 262 2.0 3.0 0.00 0.00 0.00 50 1008.9
20260508155738 66 261 0.0 3.0 0.00 0.00 0.00 49 1009.1
20260508155235 67 169 2.0 5.0 0.00 0.00 0.00 50 1009.1
20260508154726 66 215 2.0 3.0 0.00 0.00 0.00 54 1008.9
20260508154224 66 228 2.0 3.0 0.00 0.00 0.00 54 1008.9
20260508153720 65 232 1.0 3.0 0.00 0.00 0.00 57 1009.0
20260508153217 66 184 3.0 3.0 0.00 0.00 0.00 55 1009.0
20260508152714 64 217 0.0 2.0 0.00 0.00 0.00 58 1009.1
20260508152209 64 169 2.0 3.0 0.00 0.00 0.00 59 1009.0
20260508151706 64 236 2.0 2.0 0.00 0.00 0.00 60 1009.3
20260508151203 63 207 3.0 5.0 0.00 0.00 0.00 59 1009.1
20260508150700 64 296 0.0 1.0 0.00 0.00 0.00 59 1009.2
20260508150157 62 92 1.0 3.0 0.00 0.00 0.00 61 1009.3
20260508145652 62 246 1.0 3.0 0.00 0.00 0.00 61 1009.4
20260508145149 61 206 2.0 2.0 0.00 0.00 0.00 62 1009.3
20260508144646 59 345 1.0 2.0 0.00 0.00 0.00 65 1009.3
20260508144144 58 177 3.0 5.0 0.00 0.00 0.00 67 1009.4
20260508143641 57 208 1.0 3.0 0.00 0.00 0.00 67 1009.4
20260508143138 57 225 3.0 6.0 0.00 0.00 0.00 68 1009.5
20260508142634 55 242 1.0 2.0 0.00 0.00 0.00 70 1009.3
20260508142131 55 243 2.0 3.0 0.00 0.00 0.00 70 1009.5
20260508141628 55 213 2.0 3.0 0.00 0.00 0.00 71 1009.6
20260508141125 54 210 2.0 3.0 0.00 0.00 0.00 71 1009.7
20260508140623 53 222 3.0 5.0 0.00 0.00 0.00 70 1009.7
20260508140119 53 243 2.0 5.0 0.00 0.00 0.00 73 1009.6
20260508135614 53 247 2.0 2.0 0.00 0.00 0.00 71 1009.6
20260508135111 52 252 1.0 1.0 0.00 0.00 0.00 71 1009.5
20260508134608 52 253 0.0 2.0 0.00 0.00 0.00 72 1009.5
20260508134105 52 254 0.0 1.0 0.00 0.00 0.00 73 1009.5
20260508133601 51 253 0.0 2.0 0.00 0.00 0.00 72 1009.5
20260508133058 51 253 1.0 1.0 0.00 0.00 0.00 73 1009.8
20260508132551 51 244 2.0 3.0 0.00 0.00 0.00 72 1009.6
20260508132047 51 258 0.0 2.0 0.00 0.00 0.00 71 1009.7
20260508131542 51 227 2.0 2.0 0.00 0.00 0.00 70 1009.5
20260508131040 51 235 1.0 2.0 0.00 0.00 0.00 69 1009.4
20260508130537 51 196 1.0 3.0 0.00 0.00 0.00 69 1009.2
20260508130033 51 162 3.0 5.0 0.00 0.00 0.00 68 1009.1
20260508125529 51 299 1.0 2.0 0.00 0.00 0.00 68 1008.9
20260508125027 50 355 0.0 0.0 0.00 0.00 0.00 69 1008.9
20260508124524 50 14 0.0 1.0 0.00 0.00 0.00 72 1008.9
20260508124021 49 40 0.0 1.0 0.00 0.00 0.00 71 1008.8
20260508123520 48 39 0.0 1.0 0.00 0.00 0.00 75 1008.7
20260508123016 48 250 0.0 0.0 0.00 0.00 0.00 76 1009.0
20260508122513 48 250 0.0 1.0 0.00 0.00 0.00 75 1009.1
20260508122010 48 224 1.0 2.0 0.00 0.00 0.00 74 1008.9
20260508121508 47 205 2.0 2.0 0.00 0.00 0.00 73 1008.9
20260508121006 47 215 1.0 3.0 0.00 0.00 0.00 73 1008.7
20260508120503 47 241 1.0 3.0 0.00 0.00 0.00 75 1008.8
20260508120001 48 206 4.0 7.0 0.00 0.00 0.00 75 1008.7
20260508115458 49 212 5.0 7.0 0.00 0.00 0.00 71 1008.8
20260508114955 49 13 2.0 2.0 0.00 0.00 0.00 69 1008.7
20260508114452 49 17 3.0 3.0 0.00 0.00 0.00 68 1008.5
20260508113948 49 13 1.0 1.0 0.00 0.00 0.00 68 1008.8
20260508113446 49 13 0.0 0.0 0.00 0.00 0.00 69 1009.0
20260508112943 49 14 0.0 1.0 0.00 0.00 0.00 64 1009.0
20260508112439 49 13 0.0 1.0 0.00 0.00 0.00 65 1008.9
20260508111936 49 13 0.0 1.0 0.00 0.00 0.00 66 1009.0
20260508111433 48 13 0.0 1.0 0.00 0.00 0.00 63 1009.1
20260508110930 48 14 0.0 1.0 0.00 0.00 0.00 68 1009.0
20260508110428 48 14 0.0 1.0 0.00 0.00 0.00 66 1009.1
20260508105928 48 13 1.0 2.0 0.00 0.00 0.00 65 1008.8
20260508105424 47 13 0.0 1.0 0.00 0.00 0.00 66 1009.2
20260508104922 47 13 0.0 0.0 0.00 0.00 0.00 71 1009.0
20260508104419 47 13 0.0 0.0 0.00 0.00 0.00 70 1009.2
20260508103916 47 13 0.0 0.0 0.00 0.00 0.00 68 1009.4
20260508103413 46 12 0.0 1.0 0.00 0.00 0.00 71 1009.3
20260508102910 44 13 1.0 1.0 0.00 0.00 0.00 75 1009.4
20260508102408 44 13 0.0 0.0 0.00 0.00 0.00 83 1009.1
20260508101905 44 13 0.0 0.0 0.00 0.00 0.00 78 1009.1
20260508101402 45 13 0.0 0.0 0.00 0.00 0.00 76 1009.2
20260508100859 45 13 0.0 0.0 0.00 0.00 0.00 75 1009.2
20260508100359 44 13 0.0 1.0 0.00 0.00 0.00 75 1009.4
20260508095853 44 13 0.0 0.0 0.00 0.00 0.00 80 1009.4
20260508095352 44 13 0.0 0.0 0.00 0.00 0.00 79 1009.5
20260508094848 45 13 0.0 0.0 0.00 0.00 0.00 76 1009.4
20260508094345 45 13 0.0 0.0 0.00 0.00 0.00 76 1009.6
20260508093842 45 13 0.0 1.0 0.00 0.00 0.00 78 1009.5
20260508093339 45 13 0.0 0.0 0.00 0.00 0.00 76 1009.6
20260508092837 44 13 0.0 0.0 0.00 0.00 0.00 79 1009.3
20260508092335 44 13 0.0 0.0 0.00 0.00 0.00 80 1009.3
20260508091833 44 13 0.0 0.0 0.00 0.00 0.00 81 1009.1
20260508091329 45 13 0.0 0.0 0.00 0.00 0.00 81 1009.4
20260508090827 45 13 0.0 1.0 0.00 0.00 0.00 80 1009.2
20260508090325 45 13 0.0 0.0 0.00 0.00 0.00 80 1009.7
20260508085820 45 13 0.0 0.0 0.00 0.00 0.00 79 1009.5
20260508085318 45 13 0.0 1.0 0.00 0.00 0.00 79 1009.6
20260508084814 45 13 0.0 0.0 0.00 0.00 0.00 75 1009.6
20260508084311 46 13 0.0 0.0 0.00 0.00 0.00 72 1009.6
20260508083808 47 13 0.0 0.0 0.00 0.00 0.00 71 1009.4
20260508083305 46 13 0.0 0.0 0.00 0.00 0.00 71 1009.5
20260508082800 46 13 0.0 0.0 0.00 0.00 0.00 74 1009.3
20260508082258 46 13 0.0 0.0 0.00 0.00 0.00 75 1009.1
20260508081755 46 13 0.0 0.0 0.00 0.00 0.00 74 1009.1
20260508081251 46 13 0.0 0.0 0.00 0.00 0.00 74 1009.1
20260508080749 46 13 0.0 0.0 0.00 0.00 0.00 74 1009.2
20260508080247 46 13 0.0 0.0 0.00 0.00 0.00 74 1009.1
20260508075743 46 13 0.0 1.0 0.00 0.00 0.00 76 1009.3
20260508075239 46 13 0.0 0.0 0.00 0.00 0.00 76 1009.2
20260508074737 46 13 0.0 1.0 0.00 0.00 0.00 77 1009.3
20260508074235 47 13 0.0 1.0 0.00 0.00 0.00 77 1009.4
20260508073731 48 13 1.0 2.0 0.00 0.00 0.00 74 1009.4
20260508073230 48 13 3.0 3.0 0.00 0.00 0.00 74 1009.3
20260508072725 47 13 1.0 2.0 0.00 0.00 0.00 77 1009.4
20260508072222 46 14 0.0 0.0 0.00 0.00 0.00 79 1009.3
20260508071720 47 14 0.0 0.0 0.00 0.00 0.00 78 1009.3
20260508071218 49 14 0.0 2.0 0.00 0.00 0.00 75 1009.4
20260508070715 48 11 2.0 2.0 0.00 0.00 0.00 75 1009.6
20260508070214 48 12 0.0 1.0 0.00 0.00 0.00 76 1009.5
20260508065710 50 16 1.0 2.0 0.00 0.00 0.00 74 1009.4
20260508065209 49 19 3.0 3.0 0.00 0.00 0.00 74 1009.4
20260508064706 48 352 1.0 2.0 0.00 0.00 0.00 76 1009.6
20260508064204 48 353 1.0 1.0 0.00 0.00 0.00 78 1009.4
20260508063701 49 353 0.0 1.0 0.00 0.00 0.00 75 1009.7
20260508063159 49 352 0.0 1.0 0.00 0.00 0.00 74 1009.6
20260508062656 49 352 0.0 1.0 0.00 0.00 0.00 74 1009.7
20260508062153 50 353 1.0 1.0 0.00 0.00 0.00 74 1009.8
20260508061650 50 358 2.0 3.0 0.00 0.00 0.00 73 1009.7
20260508061148 50 1 1.0 2.0 0.00 0.00 0.00 73 1009.8
20260508060644 50 11 3.0 5.0 0.00 0.00 0.00 74 1009.7
20260508060141 49 2 3.0 3.0 0.00 0.00 0.00 75 1009.7
20260508055637 49 332 0.0 2.0 0.00 0.00 0.00 77 1009.9
20260508055134 49 327 1.0 1.0 0.00 0.00 0.00 76 1009.7
20260508054630 50 342 1.0 3.0 0.00 0.00 0.00 73 1009.7
20260508054128 51 359 1.0 3.0 0.00 0.00 0.00 73 1009.7
20260508053625 50 9 3.0 6.0 0.00 0.00 0.00 73 1009.7
20260508053122 49 331 3.0 5.0 0.00 0.00 0.00 77 1009.7
20260508052620 49 125 1.0 1.0 0.00 0.00 0.00 75 1009.8
20260508052116 50 125 0.0 0.0 0.00 0.00 0.00 73 1009.5
20260508051612 50 125 0.0 0.0 0.00 0.00 0.00 72 1009.8
20260508051108 51 125 0.0 1.0 0.00 0.00 0.00 71 1009.5
20260508050604 51 125 0.0 0.0 0.00 0.00 0.00 70 1009.7
20260508045558 52 125 1.0 1.0 0.00 0.00 0.00 67 1009.6
20260508045056 52 125 0.0 1.0 0.00 0.00 0.00 67 1009.6
20260508044553 52 125 0.0 0.0 0.00 0.00 0.00 67 1009.5
20260508044049 50 125 0.0 0.0 0.00 0.00 0.00 71 1009.5
20260508043545 50 125 0.0 0.0 0.00 0.00 0.00 71 1009.4
20260508043043 51 125 0.0 0.0 0.00 0.00 0.00 70 1009.6
20260508042539 51 125 0.0 0.0 0.00 0.00 0.00 69 1009.6
20260508042037 52 125 0.0 0.0 0.00 0.00 0.00 67 1009.7
20260508041533 52 125 0.0 1.0 0.00 0.00 0.00 67 1009.6
20260508041030 52 125 0.0 0.0 0.00 0.00 0.00 67 1009.8
20260508040527 52 125 0.0 1.0 0.00 0.00 0.00 66 1009.7
20260508040024 52 125 0.0 0.0 0.00 0.00 0.00 68 1009.7
20260508035521 52 125 0.0 0.0 0.00 0.00 0.00 67 1009.8
20260508035018 53 125 0.0 0.0 0.00 0.00 0.00 65 1009.8
20260508034515 53 124 0.0 2.0 0.00 0.00 0.00 64 1009.9
20260508034012 52 20 0.0 0.0 0.00 0.00 0.00 66 1009.8
20260508033510 53 20 0.0 0.0 0.00 0.00 0.00 66 1009.9
20260508033008 53 20 0.0 0.0 0.00 0.00 0.00 66 1009.7
20260508032504 53 20 0.0 0.0 0.00 0.00 0.00 66 1009.7
20260508032002 54 20 0.0 0.0 0.00 0.00 0.00 65 1009.8
20260508031459 54 20 1.0 1.0 0.00 0.00 0.00 65 1009.7
20260508030954 54 20 0.0 0.0 0.00 0.00 0.00 65 1009.8
20260508030451 54 20 0.0 0.0 0.00 0.00 0.00 63 1009.8
20260508025949 55 20 0.0 0.0 0.00 0.00 0.00 63 1009.6
20260508025445 56 20 0.0 1.0 0.00 0.00 0.00 60 1009.8
20260508024943 56 20 0.0 1.0 0.00 0.00 0.00 60 1009.6
20260508024438 56 19 0.0 1.0 0.00 0.00 0.00 60 1009.6
20260508023935 57 18 0.0 0.0 0.00 0.00 0.00 59 1009.7
20260508023432 57 18 1.0 1.0 0.00 0.00 0.00 58 1009.6
20260508022929 58 17 0.0 1.0 0.00 0.00 0.00 57 1009.6
20260508022425 58 19 0.0 1.0 0.00 0.00 0.00 56 1009.4
20260508021922 58 16 1.0 1.0 0.00 0.00 0.00 56 1009.3
20260508021418 58 17 1.0 2.0 0.00 0.00 0.00 56 1009.2
20260508020914 59 17 0.0 2.0 0.00 0.00 0.00 55 1009.2
20260508020412 58 1 0.0 1.0 0.00 0.00 0.00 56 1009.0
20260508015909 58 1 0.0 0.0 0.00 0.00 0.00 57 1009.0
20260508015407 59 1 0.0 0.0 0.00 0.00 0.00 58 1008.9
20260508014903 59 2 0.0 1.0 0.00 0.00 0.00 57 1008.7
20260508014400 59 7 0.0 0.0 0.00 0.00 0.00 56 1008.9
20260508013855 60 7 0.0 0.0 0.00 0.00 0.00 54 1008.7
20260508013352 60 8 1.0 2.0 0.00 0.00 0.00 53 1008.6
20260508012849 61 9 1.0 3.0 0.00 0.00 0.00 52 1008.5
20260508012346 61 5 3.0 3.0 0.00 0.00 0.00 51 1008.6
20260508011844 62 355 1.0 1.0 0.00 0.00 0.00 51 1008.6
20260508011342 62 27 2.0 7.0 0.00 0.00 0.00 49 1008.6
20260508010839 62 1 2.0 3.0 0.00 0.00 0.00 49 1008.4
20260508010336 63 359 1.0 3.0 0.00 0.00 0.00 49 1008.3
20260508005833 63 347 0.0 3.0 0.00 0.00 0.00 51 1008.3
20260508005330 63 337 0.0 1.0 0.00 0.00 0.00 49 1008.3
20260508004826 64 357 2.0 2.0 0.00 0.00 0.00 49 1008.2
20260508004322 64 7 3.0 8.0 0.00 0.00 0.00 48 1008.3
20260508003819 65 13 3.0 7.0 0.00 0.00 0.00 46 1008.0
20260508003316 65 29 3.0 7.0 0.00 0.00 0.00 46 1008.1
20260508002813 66 344 2.0 3.0 0.00 0.00 0.00 46 1008.0
20260508002309 66 9 1.0 3.0 0.00 0.00 0.00 44 1007.9
20260508001806 68 343 4.0 5.0 0.00 0.00 0.00 40 1007.8
20260508001301 68 283 0.0 0.0 0.00 0.00 0.00 41 1007.8
20260508000758 68 283 0.0 1.0 0.00 0.00 0.00 41 1007.7
20260508000257 68 271 0.0 1.0 0.00 0.00 0.00 40 1007.8